TimeEDT,TemperatureF,Dew PointF,Humidity,Sea Level PressureIn,VisibilityMPH,Wind Direction,Wind SpeedMPH,Gust SpeedMPH,PrecipitationIn,Events,Conditions,WindDirDegrees,DateUTC
12:15 AM,68.0,62.6,83,30.15,10.0,ENE,4.6,-,N/A,,Clear,70,2013-07-03 04:15:00
12:35 AM,66.2,62.6,88,30.15,10.0,Calm,Calm,-,N/A,,Clear,0,2013-07-03 04:35:00
12:55 AM,64.4,62.6,94,30.15,10.0,Calm,Calm,-,N/A,,Partly Cloudy,0,2013-07-03 04:55:00
1:15 AM,66.2,62.6,88,30.14,10.0,East,3.5,-,N/A,,Clear,100,2013-07-03 05:15:00
1:35 AM,66.2,62.6,88,30.14,10.0,East,3.5,-,N/A,,Clear,90,2013-07-03 05:35:00
1:55 AM,68.0,62.6,83,30.14,10.0,East,5.8,-,N/A,,Partly Cloudy,80,2013-07-03 05:55:00
2:15 AM,68.0,62.6,83,30.13,10.0,Calm,Calm,-,N/A,,Clear,0,2013-07-03 06:15:00
2:55 AM,69.8,62.6,78,30.13,10.0,East,4.6,-,N/A,,Mostly Cloudy,80,2013-07-03 06:55:00
3:15 AM,68.0,62.6,83,30.13,10.0,Calm,Calm,-,N/A,,Mostly Cloudy,0,2013-07-03 07:15:00
3:35 AM,68.0,62.6,83,30.13,10.0,Calm,Calm,-,N/A,,Overcast,0,2013-07-03 07:35:00
3:55 AM,66.2,62.6,88,30.14,10.0,Calm,Calm,-,N/A,,Overcast,0,2013-07-03 07:55:00
4:15 AM,66.2,62.6,88,30.14,10.0,Calm,Calm,-,N/A,,Scattered Clouds,0,2013-07-03 08:15:00
4:35 AM,66.2,62.6,88,30.15,10.0,ENE,3.5,-,N/A,,Scattered Clouds,60,2013-07-03 08:35:00
4:55 AM,66.2,62.6,88,30.15,10.0,Calm,Calm,-,N/A,,Mostly Cloudy,0,2013-07-03 08:55:00
5:15 AM,66.2,64.4,94,30.16,10.0,Calm,Calm,-,N/A,,Overcast,0,2013-07-03 09:15:00
5:35 AM,66.2,64.4,94,30.16,10.0,Calm,Calm,-,N/A,,Light Drizzle,0,2013-07-03 09:35:00
5:55 AM,66.2,64.4,94,30.16,10.0,Calm,Calm,-,N/A,,Overcast,0,2013-07-03 09:55:00
6:15 AM,66.2,64.4,94,30.17,9.0,Calm,Calm,-,N/A,,Light Drizzle,0,2013-07-03 10:15:00
6:35 AM,66.2,64.4,94,30.18,10.0,Calm,Calm,-,N/A,,Light Drizzle,0,2013-07-03 10:35:00
6:55 AM,66.2,64.4,94,30.18,9.0,Calm,Calm,-,N/A,,Light Drizzle,0,2013-07-03 10:55:00
7:15 AM,66.2,64.4,94,30.18,8.0,East,4.6,-,N/A,,Light Drizzle,90,2013-07-03 11:15:00
7:35 AM,66.2,64.4,94,30.19,7.0,Calm,Calm,-,N/A,Rain,Rain,0,2013-07-03 11:35:00
7:55 AM,66.2,64.4,94,30.20,6.0,Variable,3.5,-,N/A,Rain,Rain,0,2013-07-03 11:55:00
8:15 AM,66.2,64.4,94,30.20,7.0,East,5.8,-,N/A,Rain,Light Rain,100,2013-07-03 12:15:00
8:35 AM,66.2,66.2,100,30.22,7.0,East,6.9,-,N/A,Rain,Light Rain,100,2013-07-03 12:35:00
8:55 AM,66.2,66.2,100,30.22,7.0,Calm,Calm,-,N/A,Rain,Rain,0,2013-07-03 12:55:00
9:15 AM,66.2,66.2,100,30.22,7.0,East,5.8,-,N/A,,Light Drizzle,100,2013-07-03 13:15:00
9:35 AM,68.0,66.2,94,30.22,9.0,East,4.6,-,N/A,,Mostly Cloudy,100,2013-07-03 13:35:00
9:55 AM,68.0,66.2,94,30.21,10.0,ENE,3.5,-,N/A,,Overcast,70,2013-07-03 13:55:00
10:15 AM,68.0,66.2,94,30.22,5.0,ESE,4.6,-,N/A,Rain,Light Rain,110,2013-07-03 14:15:00
10:35 AM,68.0,66.2,94,30.22,5.0,ENE,3.5,-,N/A,Rain,Light Rain,60,2013-07-03 14:35:00
10:55 AM,68.0,66.2,94,30.22,9.0,Calm,Calm,-,N/A,,Light Drizzle,0,2013-07-03 14:55:00
11:15 AM,69.8,66.2,88,30.23,10.0,East,4.6,-,N/A,,Overcast,90,2013-07-03 15:15:00
11:35 AM,69.8,66.2,88,30.22,10.0,Calm,Calm,-,N/A,,Scattered Clouds,0,2013-07-03 15:35:00
11:55 AM,71.6,66.2,83,30.22,7.0,Calm,Calm,-,N/A,Rain,Light Rain,0,2013-07-03 15:55:00
12:15 PM,69.8,66.2,88,30.24,4.0,ESE,4.6,-,N/A,Rain,Rain,120,2013-07-03 16:15:00
12:35 PM,69.8,66.2,88,30.23,6.0,Calm,Calm,-,N/A,,Light Drizzle,0,2013-07-03 16:35:00
12:55 PM,71.6,68.0,88,30.23,10.0,ENE,4.6,-,N/A,,Overcast,60,2013-07-03 16:55:00
1:15 PM,69.8,68.0,94,30.23,2.0,Calm,Calm,-,N/A,Rain,Heavy Rain,0,2013-07-03 17:15:00
1:35 PM,69.8,66.2,88,30.23,3.0,Calm,Calm,-,N/A,Rain,Heavy Rain,0,2013-07-03 17:35:00
1:55 PM,68.0,66.2,94,30.22,1.5,Calm,Calm,-,N/A,Rain,Heavy Rain,0,2013-07-03 17:55:00
2:15 PM,68.0,66.2,94,30.22,7.0,East,4.6,-,N/A,Rain,Rain,90,2013-07-03 18:15:00
2:35 PM,66.2,66.2,100,30.21,3.0,East,3.5,-,N/A,Rain,Heavy Rain,80,2013-07-03 18:35:00
2:55 PM,66.2,66.2,100,30.21,5.0,ENE,3.5,-,N/A,Rain,Rain,70,2013-07-03 18:55:00
3:15 PM,66.2,66.2,100,30.21,5.0,Variable,6.9,-,N/A,Rain,Light Rain,0,2013-07-03 19:15:00
3:35 PM,66.2,66.2,100,30.21,10.0,ENE,4.6,-,N/A,,Light Drizzle,70,2013-07-03 19:35:00
3:55 PM,68.0,66.2,94,30.21,10.0,SW,4.6,-,N/A,,Overcast,230,2013-07-03 19:55:00
4:15 PM,64.4,62.6,94,30.22,0.5,West,10.4,-,N/A,Fog-Rain,Heavy Rain,260,2013-07-03 20:15:00
4:35 PM,64.4,64.4,100,30.22,8.0,SW,10.4,-,N/A,Rain,Light Rain,220,2013-07-03 20:35:00
4:55 PM,64.4,64.4,100,30.22,9.0,SW,8.1,-,N/A,Rain,Light Rain,220,2013-07-03 20:55:00
5:15 PM,64.4,64.4,100,30.23,10.0,WSW,5.8,-,N/A,,Light Drizzle,250,2013-07-03 21:15:00
5:35 PM,64.4,64.4,100,30.23,7.0,WNW,3.5,-,N/A,Rain,Rain,290,2013-07-03 21:35:00
5:55 PM,64.4,64.4,100,30.24,5.0,Calm,Calm,-,N/A,Rain,Heavy Rain,0,2013-07-03 21:55:00
6:15 PM,64.4,64.4,100,30.24,5.0,WNW,3.5,-,N/A,Rain,Heavy Rain,290,2013-07-03 22:15:00
6:35 PM,64.4,64.4,100,30.25,7.0,Calm,Calm,-,N/A,Rain,Heavy Rain,0,2013-07-03 22:35:00
6:55 PM,64.4,62.6,94,30.26,6.0,WSW,8.1,-,N/A,Rain,Heavy Rain,240,2013-07-03 22:55:00
7:15 PM,62.6,62.6,100,30.27,5.0,WSW,5.8,-,N/A,Rain,Heavy Rain,240,2013-07-03 23:15:00
7:35 PM,62.6,62.6,100,30.28,4.0,WSW,5.8,-,N/A,Rain,Heavy Rain,250,2013-07-03 23:35:00
7:55 PM,62.6,62.6,100,30.27,8.0,WSW,4.6,-,N/A,Rain,Heavy Rain,250,2013-07-03 23:55:00
8:15 PM,62.6,62.6,100,30.28,6.0,Calm,Calm,-,N/A,Rain,Rain,0,2013-07-04 00:15:00
8:35 PM,62.6,62.6,100,30.27,7.0,Calm,Calm,-,N/A,Rain,Light Rain,0,2013-07-04 00:35:00
8:55 PM,62.6,62.6,100,30.26,10.0,Calm,Calm,-,N/A,,Light Drizzle,0,2013-07-04 00:55:00
9:15 PM,62.6,62.6,100,30.24,10.0,ENE,4.6,-,N/A,,Clear,70,2013-07-04 01:15:00
9:35 PM,62.6,62.6,100,30.25,10.0,Calm,Calm,-,N/A,,Clear,0,2013-07-04 01:35:00
9:55 PM,62.6,62.6,100,30.25,10.0,Calm,Calm,-,N/A,,Clear,0,2013-07-04 01:55:00
10:15 PM,62.6,62.6,100,30.23,10.0,Calm,Calm,-,N/A,,Clear,0,2013-07-04 02:15:00
10:35 PM,62.6,62.6,100,30.24,10.0,ENE,3.5,-,N/A,,Clear,60,2013-07-04 02:35:00
10:55 PM,62.6,62.6,100,30.25,10.0,NNE,4.6,-,N/A,,Clear,30,2013-07-04 02:55:00
11:15 PM,62.6,60.8,94,30.23,10.0,ESE,5.8,-,N/A,,Clear,110,2013-07-04 03:15:00
11:35 PM,62.6,60.8,94,30.22,10.0,East,6.9,-,N/A,,Clear,90,2013-07-04 03:35:00
11:55 PM,60.8,60.8,100,30.23,10.0,East,4.6,-,N/A,,Clear,80,2013-07-04 03:55:00